Regional Weather Roundup
Issued by NWS New Orleans/Baton Rouge, LA

Home | Current Version | Previous Version | Text Only | Print | Product List | Glossary Off
Versions: 1 2 3 4 5 6 7 8 9 10 11 12 13 14 15 16 17 18 19 20 21 22 23 24 25 26 27 28 29 30 31 32 33 34 35 36 37 38 39 40 41 42 43 44 45 46 47 48 49 50

059
ASUS44 KLIX 191410
RWRLIX
NEW ORLEANS REGIONAL WEATHER ROUNDUP
NATIONAL WEATHER SERVICE NEW ORLEANS LA
900 AM CDT FRI SEP 19 2014

NOTE: "FAIR" INDICATES FEW OR NO CLOUDS BELOW 12,000 FEET WITH NO
      SIGNIFICANT WEATHER AND/OR OBSTRUCTIONS TO VISIBILITY.
      SKY/WX - SKY CONDITION AND SIGNIFICANT WEATHER.
      TMP - AIR TEMPERATURE.     DP    - DEWPOINT TEMPERATURE.
      RH  - RELATIVE HUMIDITY.   PRES  - PRESSURE.
      HI  - HEAT INDEX.          WCI   - WIND CHILL INDEX.

*  THESE STATIONS ARE NOT NWS OR FAA STATIONS AND ARE NOT UNDER
   NWS QUALITY CONTROL.

LAZ038-040-048-061>063-065>067-069-191500-
SOUTHEAST LOUISIANA

CITY           SKY/WX    TMP DP  RH WIND       PRES   REMARKS
N.O. AUDUBON   NOT AVBL
N.O. INTL ARPT PTSUNNY   79  69  71 E13       29.95S
N.O. LAKEFRONT CLOUDY    78  71  79 E12       29.96R
N.O. DOWNTOWN* PTSUNNY   79  68  69 S3        29.96R
SLIDELL        PTSUNNY   76  70  82 NE5       29.96S
BATON ROUGE    MOSUNNY   76  71  85 E6        29.97R
BOOTHVILLE     CLOUDY    77  72  84 E10       29.94F
BELLE CHASSE   PTSUNNY   79  70  74 E7        29.94S
BOGALUSA*        N/A     77  69  77 E6        30.00R
GALLIANO*      NOT AVBL
NEW ROADS*       N/A     76  71  85 E5        29.97R
GONZALES*        N/A     76  75  94 E7        29.95S
HAMMOND*       MOSUNNY   77  68  73 E7        29.99S
HOUMA*         NOT AVBL
PORT FOURCHON* SUNNY     79  70  73 E13G20    29.96S

$$

MSZ070-080>082-191500-
SOUTHERN MISSISSIPPI

CITY           SKY/WX    TMP DP  RH WIND       PRES   REMARKS
MCCOMB         SUNNY     73  68  84 E5        30.00R
GULFPORT       PTSUNNY   77  72  84 NE6       29.96S
BILOXI         PTSUNNY   76  71  83 NE6       29.97R
PASCAGOULA     PTSUNNY   75  71  87 NE3       29.97R
STENNIS ARPT*  MOSUNNY   75  68  78 CALM      29.97R

$$

COASTAL OBSERVATIONS
LAKE AND NEARSHORE STATIONS

STATION/POSITION TIME  TEMP    WIND        PRES    WAVE
                       AIR SEA DIR/SP/G            HT/PER
                 (UTC) (F)     (DEG/KT/KT) (MB)    (FT/S)
PASCAGOULA       1400   78     150/  2/  5 1014.2
WAVELAND YACHT   1400   77      70/  7/  8 1013.8
GRAND ISLE       1400   77 85  100/ 13/ 22 1014.0
SOUTHWEST PASS   1400   77 90  100/ 22/ 23 1013.8
NEW CANAL        1400   78 81  130/  2/  7 1014.7
SHELL BEACH      1400   78 79   90/ 10/ 13 1013.8

OFFSHORE STATIONS

STATION/POSITION TIME  TEMP    WIND        PRES    WAVE
                       AIR SEA DIR/SP/G            HT/PER
                 (UTC) (F)     (DEG/KT/KT) (MB)    (FT/S)
64 S DAUPHIN ISL 1349   79 84   70/ 12/ 14 1014.2    2/ 4

$$




USA.gov is the U.S. government's official web portal to all federal, state and local government web resources and services.